�N����,����,�~����,�C��,���x,�C��,����,���ϕ���,�ő�u�ԕ���,�ő厞����,���˗�,�I�_���x,�n�����x,�ő啗���N��,DTYPE
"22/03/29","00:10",0.0,6.8,71.0,1023.0,312.9,2.1,3.5,309.7,0.00,2.0,11.6,"00:07:36",1
"22/03/29","00:20",0.0,6.8,71.9,1022.7,287.5,1.0,2.1,294.2,0.00,2.1,11.3,"00:12:00",1
"22/03/29","00:30",0.0,6.7,72.5,1023.0,291.2,1.0,2.1,315.0,0.00,2.2,11.5,"00:27:20",1
"22/03/29","00:40",0.0,6.7,73.0,1023.0,317.0,1.2,2.1,316.6,0.00,2.2,11.3,"00:37:52",1
"22/03/29","00:50",0.0,6.6,73.6,1023.0,314.8,2.1,2.8,319.8,0.00,2.3,11.5,"00:47:28",1
"22/03/29","01:00",0.0,6.5,74.1,1023.2,293.2,1.5,2.2,322.9,0.00,2.3,11.3,"00:50:16",1
"22/03/29","01:10",0.0,6.4,74.7,1023.2,303.4,1.8,2.5,307.0,0.00,2.3,11.2,"01:04:40",1
"22/03/29","01:20",0.0,6.4,75.2,1023.2,302.8,1.7,2.4,334.0,0.00,2.4,11.3,"01:18:48",1
"22/03/29","01:30",0.0,6.4,75.7,1023.2,320.5,1.7,2.6,328.2,0.00,2.5,11.2,"01:22:08",1
"22/03/29","01:40",0.0,6.4,76.2,1023.0,273.0,1.2,2.0,304.4,0.00,2.6,11.2,"01:30:32",1
"22/03/29","01:50",0.0,6.4,76.6,1023.0,172.3,0.5,1.4,262.4,0.00,2.6,11.2,"01:49:20",1
"22/03/29","02:00",0.0,6.4,76.7,1022.7,284.2,1.6,2.1,293.3,0.00,2.7,11.3,"01:58:40",1
"22/03/29","02:10",0.0,6.4,76.9,1023.0,303.3,2.5,3.6,314.3,0.00,2.7,11.1,"02:05:28",1
"22/03/29","02:20",0.0,6.3,77.2,1023.0,303.4,2.3,3.2,314.0,0.00,2.6,11.2,"02:11:04",1
"22/03/29","02:30",0.0,6.2,77.6,1022.7,291.8,2.3,3.1,311.2,0.00,2.6,11.1,"02:21:12",1
"22/03/29","02:40",0.0,6.2,78.0,1022.7,292.0,2.3,2.9,311.6,0.00,2.7,11.1,"02:31:52",1
"22/03/29","02:50",0.0,6.1,78.3,1022.5,299.5,1.8,2.7,336.1,0.00,2.7,11.1,"02:49:36",1
"22/03/29","03:00",0.0,6.2,78.4,1022.3,328.1,2.1,3.4,340.3,0.00,2.8,11.0,"02:56:16",1
"22/03/29","03:10",0.0,6.4,78.1,1022.5,321.6,3.1,4.4,322.0,0.00,2.9,11.3,"03:07:28",1
"22/03/29","03:20",0.0,6.5,77.7,1021.8,299.9,3.0,4.9,322.7,0.00,2.9,11.0,"03:10:24",1
"22/03/29","03:30",0.0,6.4,77.6,1022.0,297.0,2.5,3.3,320.6,0.00,2.8,10.9,"03:22:56",1
"22/03/29","03:40",0.0,6.4,77.6,1021.8,316.5,2.6,4.0,314.7,0.00,2.8,10.9,"03:39:12",1
"22/03/29","03:50",0.0,6.5,77.6,1021.5,321.6,3.0,4.1,322.8,0.00,2.9,10.9,"03:46:24",1
"22/03/29","04:00",0.0,6.5,77.6,1021.5,323.7,3.5,4.8,320.5,0.00,2.9,11.0,"03:53:52",1
"22/03/29","04:10",0.0,6.4,77.8,1021.8,324.7,3.0,4.0,329.9,0.00,2.9,10.9,"04:08:16",1
"22/03/29","04:20",0.0,6.4,78.0,1022.0,312.6,3.6,5.0,334.7,0.00,2.9,10.8,"04:17:04",1
"22/03/29","04:30",0.0,6.4,77.9,1022.3,321.0,3.6,5.1,333.1,0.00,2.9,10.8,"04:21:28",1
"22/03/29","04:40",0.0,6.3,78.1,1022.5,327.0,3.5,5.1,313.6,0.00,2.8,10.7,"04:35:44",1
"22/03/29","04:50",0.0,6.3,78.3,1022.0,335.1,2.6,4.1,335.6,0.00,2.8,10.8,"04:45:12",1
"22/03/29","05:00",0.0,6.1,78.6,1022.0,314.1,2.1,3.1,332.2,0.00,2.7,10.6,"04:50:08",1
"22/03/29","05:10",0.0,6.1,79.0,1022.0,305.7,2.8,4.3,319.6,0.00,2.8,10.7,"05:04:18",1
"22/03/29","05:20",0.0,6.1,79.2,1021.8,319.7,3.2,4.4,314.9,0.00,2.8,10.7,"05:13:28",1
"22/03/29","05:30",0.0,6.1,79.5,1022.0,332.6,2.3,4.0,315.4,0.00,2.9,10.8,"05:20:08",1
"22/03/29","05:40",0.0,6.0,79.9,1022.0,334.3,2.1,3.1,333.9,0.00,2.8,10.6,"05:31:28",1
"22/03/29","05:50",0.0,5.9,80.5,1022.5,322.5,2.5,3.3,323.2,0.00,2.8,10.5,"05:43:28",1
"22/03/29","06:00",0.0,5.9,81.1,1022.3,324.0,2.7,3.5,326.2,0.00,3.0,10.7,"05:52:16",1
"22/03/29","06:10",0.0,5.8,81.6,1022.7,321.2,2.6,3.1,334.7,0.00,2.9,10.6,"06:00:16",1
"22/03/29","06:20",0.0,5.8,82.0,1022.5,326.3,2.5,3.4,330.7,0.00,3.0,10.5,"06:12:56",1
"22/03/29","06:30",0.0,5.9,82.4,1022.5,318.7,2.5,4.1,335.4,0.00,3.2,10.7,"06:22:24",1
"22/03/29","06:40",0.0,5.9,82.6,1023.0,291.2,2.3,3.1,298.7,0.00,3.2,10.6,"06:37:20",1
"22/03/29","06:50",0.0,6.0,82.8,1023.2,299.2,3.0,4.0,309.8,0.00,3.3,10.3,"06:40:24",1
"22/03/29","07:00",0.0,6.0,83.0,1023.4,289.5,2.5,3.1,311.0,0.00,3.4,10.6,"06:56:32",1
"22/03/29","07:10",0.0,6.0,83.0,1023.4,304.7,3.0,3.7,305.4,0.00,3.4,10.4,"07:03:20",1
"22/03/29","07:20",0.0,6.2,82.6,1023.4,312.4,3.1,4.1,308.0,0.00,3.5,10.3,"07:14:32",1
"22/03/29","07:30",0.0,6.4,82.2,1023.7,290.9,2.3,3.1,307.6,0.01,3.6,10.4,"07:29:36",1
"22/03/29","07:40",0.0,6.6,81.9,1023.7,298.8,2.3,3.1,314.8,0.03,3.8,10.6,"07:34:32",1
"22/03/29","07:50",0.0,6.8,81.5,1023.9,290.0,2.3,3.3,309.3,0.04,3.9,10.3,"07:40:16",1
"22/03/29","08:00",0.0,6.9,81.0,1023.7,294.0,2.5,3.2,316.2,0.04,3.9,10.2,"07:51:04",1
"22/03/29","08:10",0.0,7.1,80.1,1023.9,303.6,3.4,4.5,311.1,0.04,3.9,10.4,"08:01:12",1
"22/03/29","08:20",0.0,7.4,79.3,1023.7,324.6,2.7,3.3,327.2,0.06,4.1,10.4,"08:10:32",1
"22/03/29","08:30",0.0,7.5,78.5,1024.1,301.5,2.5,3.5,315.3,0.06,4.0,10.4,"08:24:40",1
"22/03/29","08:40",0.0,7.7,77.7,1024.4,296.0,2.3,3.1,304.6,0.08,4.1,10.2,"08:36:32",1
"22/03/29","08:50",0.0,8.0,76.7,1024.4,291.0,2.2,3.1,268.5,0.10,4.2,10.5,"08:44:56",1
"22/03/29","09:00",0.0,8.3,75.4,1024.4,302.9,2.3,3.4,305.1,0.08,4.3,10.4,"08:55:04",1
"22/03/29","09:10",0.0,8.4,74.2,1024.6,304.0,2.0,3.1,328.4,0.07,4.1,10.3,"09:00:48",1
"22/03/29","09:20",0.0,8.6,73.3,1024.1,309.9,1.8,2.6,316.3,0.07,4.1,10.4,"09:18:16",1
"22/03/29","09:30",0.0,8.8,72.6,1024.4,300.7,1.6,2.6,314.0,0.08,4.2,10.4,"09:24:40",1
"22/03/29","09:40",0.0,9.0,72.3,1024.1,308.1,1.1,2.0,313.3,0.09,4.3,10.5,"09:38:56",1
"22/03/29","09:50",0.0,9.3,71.8,1024.1,290.9,1.3,2.0,324.2,0.09,4.5,10.6,"09:46:32",1
"22/03/29","10:00",0.0,9.5,71.6,1024.1,307.5,0.6,1.2,296.2,0.11,4.7,10.4,"09:53:44",1
"22/03/29","10:10",0.0,10.0,71.2,1024.6,274.7,1.0,1.8,251.9,0.14,5.1,10.4,"10:02:16",1
"22/03/29","10:20",0.0,10.2,70.2,1024.6,287.3,1.8,2.8,260.4,0.14,5.1,10.6,"10:16:32",1
"22/03/29","10:30",0.0,10.7,68.6,1024.4,271.8,0.6,2.5,315.0,0.13,5.2,10.5,"10:20:40",1
"22/03/29","10:40",0.0,11.0,67.0,1023.9,254.2,1.1,2.2,246.5,0.15,5.2,10.7,"10:33:28",1
"22/03/29","10:50",0.0,11.8,65.5,1024.1,288.0,1.2,1.8,310.3,0.21,5.6,10.6,"10:47:28",1
"22/03/29","11:00",0.0,12.2,62.8,1024.4,297.4,1.8,2.8,314.5,0.26,5.4,10.7,"10:57:04",1
"22/03/29","11:10",0.0,12.4,63.6,1024.6,313.5,1.8,2.8,342.9,0.19,5.7,10.7,"11:07:52",1
"22/03/29","11:20",0.0,13.2,64.2,1024.1,343.9,1.0,2.1,340.3,0.21,6.6,10.7,"11:10:40",1
"22/03/29","11:30",0.0,13.5,65.0,1023.9,202.7,0.6,1.8,163.9,0.19,7.1,10.9,"11:26:00",1
"22/03/29","11:40",0.0,13.6,64.8,1023.9,253.6,1.1,1.9,246.4,0.21,7.1,10.8,"11:32:16",1
"22/03/29","11:50",0.0,14.2,65.2,1024.1,257.3,0.8,2.0,253.8,0.28,7.8,10.9,"11:46:16",1
"22/03/29","12:00",0.0,14.7,63.5,1023.4,233.2,0.8,2.0,150.1,0.33,7.9,11.0,"11:59:12",1
"22/03/29","12:10",0.0,15.3,61.6,1023.7,310.7,1.2,2.8,334.0,0.40,8.0,10.7,"12:00:02",1
"22/03/29","12:20",0.0,15.6,61.4,1023.0,296.8,1.6,2.9,329.8,0.45,8.2,11.0,"12:10:08",1
"22/03/29","12:30",0.0,15.7,60.7,1023.4,146.4,1.2,2.6,137.3,0.42,8.2,11.2,"12:20:24",1
"22/03/29","12:40",0.0,16.0,61.9,1022.7,233.5,1.0,2.6,242.8,0.33,8.7,11.1,"12:36:40",1
"22/03/29","12:50",0.0,16.7,61.6,1022.5,231.7,1.0,2.0,182.7,0.43,9.3,11.2,"12:46:16",1
"22/03/29","13:00",0.0,16.8,60.8,1022.3,201.7,1.3,3.4,221.8,0.42,9.2,11.3,"12:56:48",1
"22/03/29","13:10",0.0,17.5,58.9,1022.0,275.8,1.2,3.2,159.7,0.44,9.4,11.2,"13:09:52",1
"22/03/29","13:20",0.0,16.6,59.8,1022.0,190.9,1.6,3.1,159.1,0.29,8.8,11.4,"13:10:32",1
"22/03/29","13:30",0.0,16.7,59.7,1021.8,175.8,0.8,2.5,106.3,0.25,8.9,11.7,"13:24:48",1
"22/03/29","13:40",0.0,16.9,59.3,1022.0,158.9,1.0,2.8,235.0,0.32,9.0,11.7,"13:39:44",1
"22/03/29","13:50",0.0,17.0,59.4,1021.8,232.4,1.6,3.5,229.1,0.30,9.1,11.7,"13:42:40",1
"22/03/29","14:00",0.0,17.4,60.0,1021.5,213.2,1.1,2.6,225.4,0.32,9.6,11.9,"13:56:40",1
"22/03/29","14:10",0.0,16.9,59.6,1021.8,216.1,1.6,2.8,195.5,0.22,9.0,12.0,"14:03:04",1
"22/03/29","14:20",0.0,17.1,59.4,1021.5,219.5,1.6,2.9,206.3,0.27,9.2,12.0,"14:11:12",1
"22/03/29","14:30",0.0,17.0,58.5,1021.3,215.7,1.5,3.2,236.7,0.20,8.9,12.1,"14:26:48",1
"22/03/29","14:40",0.0,16.8,60.8,1021.5,217.2,1.2,2.2,162.1,0.17,9.2,12.2,"14:33:44",1
"22/03/29","14:50",0.0,17.2,60.3,1021.3,281.1,0.6,1.1,285.0,0.17,9.5,12.1,"14:44:32",1
"22/03/29","15:00",0.0,16.8,60.6,1021.5,240.4,2.0,3.7,237.3,0.15,9.2,12.2,"14:55:36",1
"22/03/29","15:10",0.0,16.7,61.3,1021.3,270.9,1.3,2.9,244.8,0.13,9.3,12.4,"15:01:52",1
"22/03/29","15:20",0.0,16.7,61.1,1021.1,172.5,0.7,1.6,180.7,0.13,9.2,12.3,"15:15:52",1
"22/03/29","15:30",0.0,16.8,60.9,1021.3,167.4,0.5,1.6,117.2,0.11,9.3,12.3,"15:21:36",1
"22/03/29","15:40",0.0,16.9,60.6,1021.1,254.0,0.3,1.0,195.7,0.10,9.3,12.4,"15:39:28",1
"22/03/29","15:50",0.0,16.8,61.0,1021.5,258.9,0.8,2.6,243.2,0.06,9.3,12.6,"15:44:40",1
"22/03/29","16:00",0.0,16.6,62.0,1021.1,189.2,0.8,2.4,147.0,0.05,9.3,12.4,"15:53:12",1
"22/03/29","16:10",0.0,16.5,62.6,1020.8,240.2,0.8,2.1,142.8,0.02,9.4,12.7,"16:08:48",1
"22/03/29","16:20",0.0,16.6,63.7,1020.8,190.9,0.7,2.1,138.3,0.04,9.7,12.7,"16:12:32",1
"22/03/29","16:30",0.0,16.6,63.1,1021.3,274.3,0.8,1.6,234.9,0.04,9.6,12.7,"16:26:40",1
"22/03/29","16:40",0.0,16.6,63.9,1021.1,246.6,0.6,1.8,201.0,0.03,9.8,12.6,"16:36:40",1
"22/03/29","16:50",0.0,16.6,64.0,1021.1,203.4,0.8,1.8,145.8,0.05,9.8,12.5,"16:48:40",1
"22/03/29","17:00",0.0,16.6,63.3,1021.3,183.6,0.7,2.1,146.8,0.05,9.6,12.7,"16:51:36",1
"22/03/29","17:10",0.0,16.5,64.0,1021.1,209.1,0.6,1.0,226.4,0.02,9.7,12.6,"17:01:44",1
"22/03/29","17:20",0.0,16.4,64.2,1021.3,215.0,0.8,2.0,182.6,0.01,9.7,12.6,"17:13:20",1
"22/03/29","17:30",0.0,16.2,64.2,1021.3,239.0,1.1,1.9,206.2,0.00,9.5,12.8,"17:23:28",1
"22/03/29","17:40",0.0,16.2,64.0,1021.1,210.4,0.8,1.8,202.0,0.01,9.4,12.7,"17:34:24",1
"22/03/29","17:50",0.0,16.1,64.9,1021.3,216.8,0.8,1.4,206.7,0.01,9.5,12.7,"17:44:24",1
"22/03/29","18:00",0.0,16.2,65.8,1021.1,250.0,0.8,1.7,209.1,0.02,9.8,12.7,"17:50:32",1
"22/03/29","18:10",0.0,16.3,65.7,1021.3,221.8,0.8,2.2,157.7,0.03,9.9,12.7,"18:04:48",1
"22/03/29","18:20",0.0,16.2,65.1,1021.3,220.3,1.0,1.8,207.3,0.02,9.7,12.7,"18:13:44",1
"22/03/29","18:30",0.0,16.0,63.9,1021.5,172.8,1.3,2.6,129.2,0.00,9.2,12.7,"18:26:48",1
"22/03/29","18:40",0.0,16.0,64.4,1021.5,159.4,1.3,2.4,179.7,0.00,9.3,12.8,"18:36:48",1
"22/03/29","18:50",0.0,15.7,67.1,1021.5,136.3,1.5,2.9,140.6,0.00,9.7,12.8,"18:46:48",1
"22/03/29","19:00",0.0,15.3,68.7,1021.3,116.0,1.3,2.8,106.5,0.00,9.6,12.9,"18:51:28",1
"22/03/29","19:10",0.0,15.0,69.3,1022.0,29.6,0.6,1.3,341.5,0.00,9.5,12.8,"19:08:16",1
"22/03/29","19:20",0.0,14.5,69.9,1021.8,345.0,0.5,1.3,337.2,0.00,9.1,12.7,"19:15:44",1
"22/03/29","19:30",0.0,14.0,70.5,1021.8,302.9,0.8,1.3,325.9,0.00,8.8,12.8,"19:23:30",1
"22/03/29","19:40",0.0,13.7,71.7,1022.3,292.6,1.0,1.3,334.1,0.00,8.7,12.6,"19:37:38",1
"22/03/29","19:50",0.0,13.3,73.4,1021.8,288.9,1.5,2.1,271.6,0.00,8.7,12.8,"19:48:08",1
"22/03/29","20:00",0.0,12.7,75.6,1022.3,282.5,1.7,2.5,326.2,0.00,8.5,12.6,"19:59:02",1
"22/03/29","20:10",0.0,12.4,78.0,1022.3,331.6,1.6,2.2,325.2,0.00,8.7,12.7,"20:03:12",1
"22/03/29","20:20",0.0,11.8,80.3,1022.5,324.3,1.6,2.1,321.6,0.00,8.6,12.5,"20:12:24",1
"22/03/29","20:30",0.0,11.2,81.8,1022.5,298.0,1.1,1.4,270.6,0.00,8.2,12.7,"20:22:48",1
"22/03/29","20:40",0.0,11.2,83.1,1022.0,291.7,1.3,1.8,271.9,0.00,8.5,12.5,"20:39:46",1
"22/03/29","20:50",0.0,11.3,84.2,1022.5,322.2,1.6,2.4,339.2,0.00,8.8,12.6,"20:49:28",1
"22/03/29","21:00",0.0,11.1,85.0,1022.3,324.2,1.7,2.2,340.0,0.00,8.7,12.6,"20:50:56",1
"22/03/29","21:10",0.0,10.9,85.8,1022.5,329.1,1.6,2.1,331.2,0.00,8.7,12.5,"21:02:48",1
"22/03/29","21:20",0.0,10.7,86.4,1023.0,322.4,1.3,1.8,330.7,0.00,8.6,12.6,"21:16:00",1
"22/03/29","21:30",0.0,10.5,87.0,1022.5,304.1,1.0,1.8,325.5,0.00,8.5,12.3,"21:27:52",1
"22/03/29","21:40",0.0,10.6,87.5,1022.7,325.2,1.2,1.9,318.2,0.00,8.7,12.3,"21:35:12",1
"22/03/29","21:50",0.0,10.6,87.9,1023.0,321.7,1.6,2.2,316.7,0.00,8.7,12.5,"21:41:36",1
"22/03/29","22:00",0.0,10.7,88.5,1023.0,326.1,1.3,1.8,329.3,0.00,8.9,12.1,"21:56:56",1
"22/03/29","22:10",0.0,10.7,88.7,1022.7,303.3,1.3,1.6,314.3,0.00,9.0,12.3,"22:00:32",1
"22/03/29","22:20",0.0,10.6,89.0,1022.5,286.4,0.7,1.3,269.6,0.00,8.9,12.2,"22:19:28",1
"22/03/29","22:30",0.0,10.6,89.2,1022.0,316.8,1.3,1.8,319.9,0.00,8.9,12.2,"22:22:32",1
"22/03/29","22:40",0.0,10.4,89.5,1022.0,317.3,1.6,2.1,336.5,0.00,8.8,12.2,"22:38:08",1
"22/03/29","22:50",0.0,10.3,90.0,1022.5,312.7,1.8,2.4,316.0,0.00,8.8,12.2,"22:44:00",1
"22/03/29","23:00",0.0,10.3,90.2,1022.0,326.9,1.6,2.1,328.1,0.00,8.8,12.1,"22:50:08",1
"22/03/29","23:10",0.0,10.3,90.4,1022.0,295.4,1.6,2.0,311.5,0.00,8.8,12.1,"23:04:48",1
"22/03/29","23:20",0.0,10.3,90.6,1022.3,313.8,1.6,1.9,340.4,0.00,8.9,12.1,"23:18:32",1
"22/03/29","23:30",0.0,10.0,90.9,1022.3,323.5,1.3,2.0,314.8,0.00,8.6,12.2,"23:24:16",1
"22/03/29","23:40",0.0,10.2,91.1,1022.3,307.2,1.7,2.4,315.7,0.00,8.9,12.0,"23:34:08",1
"22/03/29","23:50",0.0,10.1,91.2,1022.3,307.0,1.0,1.6,326.1,0.00,8.8,12.1,"23:40:08",1
"22/03/29","24:00",0.0,10.0,91.4,1022.0,308.5,1.6,2.0,305.4,0.00,8.7,12.1,"23:57:12",1
